                ,  0.865,  0.965,  1.065,  1.165,  1.265,  1.365,  1.465,  1.565,  1.665,  1.765,  1.865,  1.965,  2.065,  2.165,  2.265,  2.365,  2.465,  2.565,  2.665,  2.765,  2.865,  2.965,  3.065,  3.165,  3.265,  3.365,  3.465,  3.565,  3.665,  3.765,  3.865,  3.965,  4.065,  4.165,  4.265,  4.365,  4.465,  4.565,  4.665,  4.765,  4.865,  4.965,  5.065,  5.165,  5.265,  5.365,  5.465,  5.565,  5.665,  5.765,  5.865,  5.965
2001/07/07 00:00,  999.0,  999.0,  999.0,  -31.4,  -14.4,  -13.6,  -16.7,  -27.4,  -27.8,  -33.6,  -34.5,  -32.4,  -33.6,  -33.8,  -37.1,  -37.2,  -41.0,  999.0,  -39.6,  -37.9,  -37.3,  -37.1,  -37.8,  -44.6,  -35.4,  -33.7,  -33.1,  -34.8,  999.0,  -39.1,  -37.3,  -37.8,  -38.2,  -39.3,  -38.4,  -38.0,  999.0,  -40.9,  -36.4,  -39.0,  -40.1,  999.0,  999.0,  999.0,  -40.8,  -42.8,  999.0,  999.0,  -41.6,  -38.2,  -40.0,  999.0
2001/07/07 00:10,  999.0,  999.0,  999.0,  -32.9,  -13.9,  -14.3,  -19.2,  -29.9,  -30.1,  -33.6,  -37.5,  -35.3,  -34.9,  -34.4,  -37.1,  -37.0,  -38.0,  -39.5,  -38.5,  -40.5,  -38.6,  -38.8,  -39.1,  -40.8,  -39.2,  -33.6,  -30.9,  -32.1,  -40.9,  -38.7,  -36.6,  -36.4,  -37.6,  -37.3,  -40.0,  -39.4,  -38.6,  -41.7,  -39.8,  -39.7,  -41.0,  -41.2,  999.0,  999.0,  -39.2,  999.0,  -41.6,  -38.2,  999.0,  999.0,  -39.6,  -40.7
2001/07/07 00:20,  999.0,  999.0,  999.0,  -28.8,   -9.9,  -10.5,  -14.9,  -23.0,  -24.9,  -29.1,  -35.2,  -32.3,  -32.9,  -31.8,  -32.4,  -35.7,  -33.7,  -35.4,  -39.3,  -43.0,  -39.6,  -34.8,  -38.8,  -40.5,  -38.6,  -35.5,  -31.1,  -33.9,  -40.1,  -40.1,  -37.0,  -35.1,  -39.3,  -39.5,  -38.8,  -38.5,  -39.5,  -40.6,  -36.1,  -37.5,  -40.6,  -43.5,  -44.3,  -42.5,  -42.1,  -40.8,  -40.2,  -41.4,  -40.6,  -39.3,  -41.9,  -40.5
2001/07/07 00:30,  999.0,  999.0,  999.0,  -31.9,  -13.2,  -13.6,  -18.7,  -25.8,  -25.5,  -28.6,  -34.8,  -31.0,  -33.3,  -31.4,  -33.1,  -37.6,  -34.9,  -38.7,  -39.5,  -40.9,  -39.6,  -37.2,  -36.2,  -40.0,  -38.5,  -34.5,  -31.1,  -33.9,  -41.2,  -38.5,  -36.7,  -37.7,  -38.0,  -39.8,  -38.7,  -38.6,  -41.1,  -39.8,  -37.4,  -38.3,  -41.1,  -45.4,  -43.4,  999.0,  -42.0,  -42.2,  -40.9,  -40.2,  -41.7,  -40.6,  -39.8,  -40.7
2001/07/07 00:40,  999.0,  999.0,  999.0,  -29.7,  -11.3,  -11.9,  -14.6,  -24.2,  -25.0,  -29.5,  -34.5,  -30.4,  -33.6,  -32.3,  -33.7,  -35.9,  -35.5,  -37.1,  -40.0,  -39.7,  -39.3,  -36.6,  -37.3,  -39.8,  -38.2,  -36.2,  -29.1,  -32.6,  -40.8,  -40.3,  -37.0,  -36.7,  -36.9,  -39.0,  -38.5,  -38.2,  999.0,  -39.8,  -36.5,  -39.1,  -42.4,  999.0,  999.0,  -42.7,  -39.5,  -40.7,  -40.5,  -40.3,  -43.6,  -40.2,  -41.0,  -40.9
2001/07/07 00:50,  999.0,  999.0,  999.0,  -33.9,  -13.5,  -15.7,  -20.8,  -30.4,  -33.3,  -34.8,  -36.2,  -37.0,  -36.6,  -36.0,  -36.4,  -35.7,  -37.0,  -40.8,  -39.9,  -39.3,  -39.5,  -38.0,  -35.5,  -38.6,  -36.7,  -33.1,  -29.4,  -31.8,  -39.3,  -38.4,  -36.2,  -37.6,  -39.3,  -39.1,  -40.8,  -38.6,  -41.3,  -39.1,  -37.5,  -36.1,  999.0,  -41.4,  999.0,  -41.4,  -39.6,  -40.9,  -37.4,  -40.0,  -41.0,  -39.5,  -39.0,  -40.3
2001/07/07 01:00,  999.0,  999.0,  999.0,  -30.2,  -12.0,  -12.9,  -17.3,  -29.8,  -28.3,  -32.4,  -36.6,  -33.9,  -34.6,  -32.7,  -34.3,  -36.9,  -36.4,  -39.3,  -39.6,  -39.3,  -39.5,  -35.3,  -36.1,  -39.0,  -37.3,  -36.4,  -30.4,  -31.9,  -37.7,  999.0,  -37.3,  -33.6,  -35.3,  -37.0,  -39.7,  -39.2,  -41.0,  -41.9,  -38.1,  -40.3,  999.0,  999.0,  -44.3,  999.0,  -41.9,  -40.5,  -39.7,  -38.8,  -38.7,  -40.5,  -40.0,  -39.9
2001/07/07 01:10,  999.0,  999.0,  999.0,  -30.7,  -11.5,  -11.2,  -14.9,  -29.5,  -28.4,  -30.4,  -37.3,  -33.9,  -30.4,  -30.1,  -34.9,  -38.0,  -35.6,  -38.8,  -39.3,  -39.5,  -39.6,  -33.8,  -34.9,  -40.2,  -38.3,  -36.5,  -31.2,  -34.2,  -41.5,  -40.2,  -37.8,  -38.3,  -37.9,  -38.1,  -38.6,  -39.6,  -40.9,  -40.3,  -34.5,  -37.9,  -42.1,  -42.7,  -42.4,  -40.4,  -41.1,  -40.5,  -41.2,  -39.5,  -42.0,  -39.1,  -39.2,  -39.6
2001/07/07 01:20,  999.0,  999.0,  999.0,  -28.9,  -10.4,  -10.3,  -13.8,  -26.3,  -25.6,  -31.2,  -36.7,  -31.1,  -30.1,  -30.3,  -34.3,  -38.2,  -35.7,  -39.2,  -38.5,  -38.6,  -39.4,  -33.2,  -35.6,  -39.5,  -37.8,  -36.8,  -31.0,  -32.8,  -40.2,  -39.3,  -36.4,  -37.8,  -39.1,  -36.4,  -39.8,  -39.4,  -39.6,  -39.1,  -35.1,  -37.9,  999.0,  999.0,  -40.7,  999.0,  -40.1,  -40.7,  -40.7,  -38.5,  -40.9,  -40.9,  -39.4,  -39.9
2001/07/07 01:30,  999.0,  999.0,  999.0,  -30.2,  -12.3,  -11.6,  -14.3,  -27.7,  -25.8,  -30.6,  -36.8,  -32.5,  -32.7,  -29.7,  -33.7,  -38.1,  -36.0,  -36.5,  -36.5,  -40.5,  -38.9,  -35.6,  -36.9,  -40.1,  -36.8,  -34.1,  -31.5,  -33.5,  -40.7,  -37.7,  -34.8,  -37.9,  -38.7,  -37.5,  -38.9,  -39.9,  -41.0,  -39.6,  -35.0,  -39.1,  999.0,  -42.3,  999.0,  999.0,  -40.8,  -40.8,  -40.9,  -39.6,  -41.2,  -39.7,  -41.8,  -39.8
2001/07/07 01:40,  999.0,  999.0,  999.0,  -31.9,  -12.9,  -11.4,  -14.8,  -29.0,  -26.9,  -32.4,  -37.4,  -34.7,  -34.2,  -31.7,  -32.8,  -37.2,  -35.2,  -35.0,  -33.9,  -44.9,  -39.8,  -35.5,  -36.6,  -39.9,  -35.1,  -35.0,  -31.4,  -32.5,  999.0,  -38.9,  -36.9,  -36.8,  -36.7,  -37.4,  -39.1,  -40.1,  -39.8,  -39.7,  -34.0,  -38.7,  -44.8,  999.0,  -43.4,  999.0,  -40.6,  999.0,  -39.8,  -39.4,  -38.7,  -39.4,  -39.7,  -40.9
2001/07/07 01:50,  999.0,  999.0,  999.0,  -31.3,  -13.6,  -10.5,  -14.7,  -27.9,  -26.9,  -31.5,  -36.9,  -34.3,  -33.6,  -30.3,  -32.6,  -35.5,  -35.8,  -34.6,  -32.2,  999.0,  -39.9,  -35.6,  -37.3,  -40.1,  -38.0,  -34.5,  -31.5,  -32.0,  -41.9,  -39.6,  -36.7,  -38.1,  -38.2,  -38.9,  -40.0,  -40.1,  -40.2,  -39.7,  -35.2,  -40.8,  999.0,  999.0,  999.0,  -44.4,  -41.1,  -41.1,  -39.7,  -38.8,  -40.0,  -39.9,  -39.3,  -40.4
2001/07/07 02:00,  999.0,  999.0,  999.0,  -32.4,  -16.2,  -12.5,  -14.5,  -27.7,  -28.1,  -33.5,  -36.8,  -36.8,  -34.7,  -30.9,  -34.0,  -35.7,  -35.9,  -31.2,  -31.0,  -37.3,  -39.9,  -36.9,  -36.2,  -39.7,  -36.8,  -32.2,  -29.7,  -32.2,  -41.2,  -38.8,  -35.9,  -38.7,  -38.9,  -37.6,  -39.0,  -40.6,  -40.3,  -40.5,  -36.2,  -37.6,  -41.8,  -44.4,  999.0,  999.0,  -41.1,  -41.7,  -39.5,  -39.0,  -41.0,  -39.0,  -39.9,  -40.0
2001/07/07 02:10,  999.0,  999.0,  999.0,  -30.7,  -12.1,   -9.2,  -12.2,  -27.5,  -26.8,  -30.0,  -37.1,  -33.1,  -33.8,  -29.6,  -33.2,  -35.1,  -33.0,  -31.8,  -34.6,  -37.0,  -38.8,  -36.3,  -37.0,  -39.6,  -37.5,  -33.0,  -31.6,  -33.0,  -39.9,  -38.9,  -36.1,  -37.8,  -38.9,  -36.8,  -37.7,  -39.8,  -39.6,  -39.1,  -34.1,  -37.3,  999.0,  999.0,  -42.5,  -42.2,  -40.9,  -40.4,  -39.8,  -38.3,  -39.6,  -40.4,  -40.2,  -39.3
2001/07/07 02:20,  999.0,  999.0,  999.0,  -32.8,  -17.5,  -12.9,  -16.9,  -27.6,  -28.8,  -32.8,  -37.1,  -36.7,  -36.2,  -29.9,  -32.9,  -30.7,  -31.2,  -34.6,  -38.2,  -38.6,  999.0,  -35.3,  -36.0,  -41.3,  -36.9,  -33.4,  -29.1,  -31.1,  -41.0,  -36.4,  -35.0,  -38.7,  -38.4,  -37.8,  -39.8,  -39.3,  -40.6,  -40.7,  -33.5,  -37.6,  -41.4,  999.0,  -41.7,  999.0,  -41.5,  999.0,  -41.4,  -39.8,  -41.3,  999.0,  -39.6,  -40.2
2001/07/07 02:30,  999.0,  999.0,  999.0,  -32.2,  -13.8,  -10.3,  -16.0,  -29.9,  -28.1,  -32.5,  -38.3,  -35.6,  -33.9,  -29.6,  -30.6,  -31.0,  -32.9,  -35.7,  -37.5,  -38.3,  -41.5,  -33.9,  -35.2,  -41.3,  -38.4,  -33.5,  -29.8,  -33.1,  -40.1,  -38.1,  -35.8,  -38.9,  -39.0,  -37.5,  -39.2,  -40.6,  -39.5,  -39.1,  -33.9,  -39.8,  999.0,  999.0,  -42.6,  -40.5,  -40.7,  -42.4,  -41.5,  -39.2,  -41.5,  999.0,  -40.0,  -40.5
2001/07/07 02:40,  999.0,  999.0,  999.0,  -32.7,  -15.0,  -11.9,  -16.9,  -30.4,  -29.1,  -33.9,  -38.3,  -35.6,  -35.4,  -31.6,  -32.9,  -33.7,  -33.6,  -34.9,  -37.0,  -40.1,  -39.8,  -35.4,  -36.5,  -41.2,  -35.9,  -31.9,  -31.8,  -34.3,  -40.1,  -39.6,  -35.5,  -38.0,  -39.5,  -36.3,  -39.4,  -42.6,  -41.2,  -38.2,  -35.5,  -38.4,  999.0,  999.0,  -41.3,  999.0,  -40.5,  -40.4,  -39.0,  -39.5,  -40.9,  -40.0,  -39.4,  -39.9
2001/07/07 02:50,  999.0,  999.0,  999.0,  -30.5,  -12.4,  -10.3,  -13.5,  -27.4,  -25.2,  -30.2,  -36.0,  -33.8,  -33.9,  -29.6,  -31.5,  -37.0,  -35.9,  -37.9,  -38.7,  -38.5,  -39.5,  -35.5,  -34.6,  -39.7,  -37.9,  -34.5,  -32.2,  -33.2,  -41.4,  -36.7,  -35.6,  -38.8,  -38.5,  -35.6,  -40.9,  -43.0,  -40.5,  -39.6,  -35.3,  -39.3,  999.0,  -43.6,  -41.4,  -38.9,  -40.4,  -40.0,  -39.9,  -39.4,  -40.1,  -39.9,  -39.2,  -39.6
2001/07/07 03:00,  999.0,  999.0,  999.0,  -33.0,  -15.2,  -12.7,  -15.8,  -26.4,  -23.9,  -30.6,  -37.8,  -35.1,  -36.2,  -29.6,  -31.6,  -38.6,  -39.1,  -39.7,  -38.3,  -38.5,  -39.4,  -37.6,  -35.4,  -41.0,  -37.2,  -35.0,  -31.0,  -34.2,  -40.7,  -37.8,  -35.9,  -38.4,  -38.2,  -37.1,  -40.6,  -40.2,  -40.2,  -41.1,  -35.3,  -40.2,  999.0,  -40.4,  999.0,  -44.3,  -40.1,  -40.7,  999.0,  -40.6,  -40.3,  -40.3,  -40.9,  -42.0
2001/07/07 03:10,  999.0,  999.0,  999.0,  -32.3,  -15.6,  -11.3,  -14.9,  -27.1,  -27.7,  -32.2,  -38.0,  -35.4,  -35.6,  -33.4,  -33.8,  -39.0,  -39.1,  -40.2,  -38.4,  -39.4,  -40.1,  -37.2,  -36.7,  -39.6,  -36.6,  -31.8,  -31.9,  -35.1,  -41.5,  -39.6,  -34.9,  -37.4,  -37.0,  -36.4,  -38.6,  -40.8,  -40.5,  -40.1,  -36.1,  -40.3,  999.0,  -41.6,  -44.7,  -38.9,  -41.6,  -41.2,  -38.8,  -36.4,  -41.1,  -40.2,  -40.5,  -40.8
2001/07/07 03:20,  999.0,  999.0,  999.0,  -30.9,  -15.9,  -10.5,  -17.3,  -27.8,  -25.1,  -28.1,  -38.2,  -34.9,  -35.4,  -30.7,  -33.8,  -41.1,  -38.8,  -39.9,  -37.8,  -37.1,  -41.2,  -38.7,  -36.9,  -39.5,  -37.5,  -35.5,  -32.5,  -35.6,  -41.1,  -39.5,  -38.6,  -36.6,  -37.4,  -37.4,  -39.9,  -39.8,  -39.7,  -40.8,  -37.2,  -39.6,  999.0,  -39.4,  999.0,  999.0,  -40.9,  999.0,  -42.0,  -42.0,  -41.3,  -40.9,  -40.0,  -40.7
2001/07/07 03:30,  999.0,  999.0,  999.0,  -30.6,  -17.5,  -13.4,  -17.4,  -27.5,  -27.2,  -30.4,  -33.4,  -33.9,  -36.9,  -29.3,  -31.3,  -38.6,  -36.4,  -37.8,  -37.7,  -35.4,  -39.3,  -36.4,  -35.8,  -40.1,  -37.7,  -34.2,  -31.4,  -34.7,  -40.7,  -39.4,  -35.7,  -36.7,  -37.6,  -36.5,  -40.9,  -43.5,  -40.4,  -38.6,  -36.9,  -39.6,  999.0,  -42.2,  -39.8,  -40.9,  -41.4,  -42.8,  -41.1,  -39.3,  -41.3,  -39.8,  -39.9,  -39.6
2001/07/07 03:40,  999.0,  999.0,  999.0,  -30.7,  -15.3,   -9.8,  -19.5,  -26.9,  -28.9,  -31.3,  -36.1,  -35.5,  -36.6,  -32.0,  -32.5,  -36.7,  -39.1,  -39.3,  -37.4,  -35.2,  -36.8,  -32.0,  -34.6,  -40.2,  -40.5,  -31.8,  -29.9,  -34.3,  -41.0,  -41.3,  -35.4,  -38.4,  -35.7,  -34.4,  -39.5,  -40.3,  -40.4,  -39.7,  -36.9,  -40.0,  999.0,  -40.9,  -40.4,  -41.5,  -41.2,  -44.0,  -41.5,  -40.3,  -40.7,  -39.5,  -39.7,  -39.7
2001/07/07 03:50,  999.0,  999.0,  999.0,  -28.3,  -13.1,  -11.7,  -17.0,  -23.7,  -23.0,  -28.2,  -36.8,  -34.6,  -38.2,  -31.1,  -30.1,  -34.7,  -37.6,  -38.2,  -36.3,  -35.6,  -35.9,  -32.9,  -36.2,  -39.3,  -38.6,  -34.1,  -32.9,  -35.2,  -41.3,  -38.5,  -35.0,  -36.8,  -37.5,  -35.0,  -41.7,  -41.1,  -39.8,  -36.7,  -34.8,  -36.4,  -43.3,  -41.0,  -42.4,  -42.3,  -40.4,  -41.6,  -41.0,  -39.2,  -39.8,  -38.6,  -39.6,  -40.0
2001/07/07 04:00,  999.0,  999.0,  999.0,  -31.3,  -14.5,  -13.4,  -18.5,  -26.6,  -26.7,  -30.6,  -37.6,  -32.5,  -37.1,  -31.2,  -30.2,  -36.7,  -38.9,  -39.6,  -37.4,  -36.2,  -37.8,  -37.2,  -37.1,  -41.5,  -39.2,  -36.3,  -34.6,  -36.8,  -41.6,  -39.3,  -36.8,  -38.2,  -37.4,  -35.2,  -39.7,  -41.7,  -38.8,  999.0,  -38.5,  -40.9,  999.0,  999.0,  999.0,  999.0,  -39.5,  999.0,  -41.1,  -41.3,  -40.5,  -39.1,  -39.0,  -40.4
2001/07/07 04:10,  999.0,  999.0,  999.0,  -31.8,  -16.3,  -12.3,  -19.0,  -25.8,  -28.8,  -33.3,  -36.8,  -34.3,  -38.7,  -32.8,  -32.2,  -37.3,  -37.2,  -39.8,  -37.2,  -36.5,  -39.1,  -38.9,  -39.9,  -40.9,  -36.4,  -33.7,  -35.2,  -35.5,  -40.1,  -36.4,  -37.5,  -38.2,  -37.9,  -36.9,  -41.5,  999.0,  -39.4,  -41.7,  -37.3,  -39.0,  999.0,  -41.6,  999.0,  999.0,  -42.7,  -41.8,  999.0,  -40.5,  -41.6,  -39.1,  -39.5,  -40.9
2001/07/07 04:20,  999.0,  999.0,  999.0,  -28.9,  -12.4,  -12.3,  -17.7,  -24.7,  -25.9,  -29.4,  -36.1,  -33.4,  -35.9,  -31.1,  -32.7,  -37.5,  -38.3,  -37.7,  -36.6,  -35.7,  -39.4,  -37.8,  -38.8,  -40.6,  -36.3,  -33.8,  -33.0,  -35.7,  -40.3,  -37.5,  -36.0,  -39.5,  -37.5,  -37.6,  -41.6,  -42.2,  -39.9,  -39.5,  -38.7,  -38.3,  999.0,  999.0,  -42.9,  -43.7,  -39.4,  -39.8,  -40.8,  999.0,  -39.6,  -38.7,  -39.5,  -36.6
2001/07/07 04:30,  999.0,  999.0,  999.0,  -24.7,  -15.0,   -9.6,  -15.4,  -20.9,  -23.0,  -28.4,  -37.0,  -31.1,  -35.2,  -28.8,  -29.4,  -34.8,  -36.4,  -40.4,  -35.5,  -36.4,  -40.0,  -38.4,  -38.5,  -38.4,  -38.0,  -34.5,  -33.8,  -36.5,  -40.2,  -36.7,  -34.6,  -36.0,  -37.4,  -37.9,  -40.8,  -41.5,  -38.8,  -42.6,  -38.7,  -38.6,  999.0,  -41.8,  -41.8,  999.0,  -39.3,  999.0,  -42.1,  999.0,  -39.0,  -37.5,  -39.9,  -40.6
2001/07/07 04:40,  999.0,  999.0,  999.0,  -26.3,  -10.3,  -12.3,  -16.0,  -23.9,  -26.8,  -24.3,  -31.5,  -32.9,  -35.1,  -31.2,  -30.0,  -34.8,  -38.1,  -38.9,  -36.0,  -36.8,  -39.9,  -37.5,  -38.3,  -37.0,  -36.2,  -33.7,  -33.8,  -34.8,  -39.1,  -39.1,  -35.0,  -37.0,  -37.7,  -38.5,  -40.0,  -40.5,  -39.8,  -40.3,  -39.1,  -36.3,  999.0,  999.0,  999.0,  999.0,  -40.8,  -39.1,  -39.3,  999.0,  -38.6,  -37.8,  -39.9,  -39.9
2001/07/07 04:50,  999.0,  999.0,  999.0,  -26.9,  -12.0,  -10.4,  -13.0,  -25.3,  -26.6,  -25.5,  -36.1,  -34.2,  -34.8,  -29.8,  -26.9,  -31.1,  -37.0,  -39.3,  -36.1,  -38.6,  -37.8,  -37.4,  -36.5,  -38.0,  -34.9,  -32.8,  -34.1,  -35.6,  -37.4,  -36.4,  -34.1,  -37.7,  -38.7,  -39.1,  -39.9,  -40.6,  -40.7,  -40.7,  -35.3,  -34.4,  -41.3,  -40.2,  -42.7,  999.0,  -40.2,  -40.5,  -39.5,  -41.7,  -39.9,  -39.1,  -40.1,  -41.3
2001/07/07 05:00,  999.0,  999.0,  999.0,  -24.3,   -6.6,   -5.0,   -8.9,  -21.7,  -27.6,  -26.8,  -33.1,  -28.1,  -30.4,  -29.2,  -33.9,  -35.7,  -36.4,  -36.3,  -36.1,  -40.5,  -39.1,  -37.3,  -35.9,  -40.1,  -35.3,  -33.7,  -35.2,  -36.5,  -39.3,  -38.2,  -35.7,  -38.3,  -38.3,  -38.3,  -40.7,  -42.6,  -38.9,  -42.1,  -38.7,  -40.8,  -41.3,  999.0,  -41.4,  -42.1,  -40.8,  -40.0,  -38.8,  999.0,  -38.7,  -38.8,  -39.5,  -41.0
2001/07/07 05:10,  999.0,  999.0,  999.0,  -23.5,   -6.7,   -6.1,   -8.8,  -22.1,  -28.5,  -29.5,  -33.6,  -33.2,  -33.1,  -29.7,  -33.8,  -36.4,  -36.7,  -37.2,  -38.6,  -39.0,  -38.5,  -36.1,  -36.3,  -40.0,  -37.0,  -34.4,  -37.2,  -37.6,  -38.9,  -37.4,  -35.8,  -39.5,  -38.5,  -37.9,  -41.6,  -40.1,  -40.6,  -42.3,  -36.7,  -37.7,  -41.7,  -41.7,  -42.6,  999.0,  -40.1,  -41.7,  -39.3,  -39.4,  -39.5,  -37.5,  -39.8,  -40.6
2001/07/07 05:20,  999.0,  999.0,  999.0,  -27.9,   -9.0,   -9.1,  -12.8,  -23.0,  -27.6,  -27.3,  -30.5,  -31.6,  -31.3,  -27.2,  -34.9,  -35.9,  -37.2,  -39.7,  -37.9,  -39.8,  -40.0,  -36.5,  -38.7,  -39.1,  -36.9,  -33.4,  -36.9,  -40.5,  -37.5,  -38.1,  -36.4,  -39.8,  -39.1,  -38.3,  -41.9,  -39.6,  -40.7,  -41.2,  -39.9,  -38.9,  -44.1,  -43.1,  -43.0,  999.0,  -42.4,  -41.2,  -39.5,  -41.5,  -39.7,  -37.5,  -41.0,  -42.0
2001/07/07 05:30,  999.0,  999.0,  999.0,  -24.6,   -9.3,   -5.1,  -10.0,  -21.5,  -26.5,  -24.3,  -29.9,  -30.5,  -28.3,  -27.2,  -32.7,  -37.4,  -36.5,  -37.1,  -37.9,  -39.3,  -38.3,  -36.1,  -35.5,  -39.9,  -36.7,  -35.4,  -37.2,  -38.7,  -40.8,  -39.1,  -35.2,  -39.2,  -40.2,  -37.2,  -40.0,  -40.5,  999.0,  -40.0,  -37.8,  -38.5,  999.0,  999.0,  -42.8,  -41.2,  -40.4,  -40.9,  -39.9,  -42.5,  -40.4,  -39.8,  -38.9,  -36.8
2001/07/07 05:40,  999.0,  999.0,  999.0,  -28.3,  -13.2,   -8.3,  -16.8,  -25.3,  -28.6,  -28.8,  -32.0,  -34.8,  -29.8,  -25.7,  -28.3,  -34.9,  -36.6,  -38.8,  -38.3,  -39.4,  -36.8,  -37.0,  -37.6,  -41.5,  -37.9,  -35.1,  -38.3,  -39.0,  -39.5,  -37.1,  -35.9,  -38.6,  -39.9,  -37.8,  -39.9,  -40.0,  -39.7,  -39.7,  -36.7,  -36.9,  999.0,  999.0,  999.0,  999.0,  -43.3,  -40.3,  -40.6,  -41.9,  -40.2,  -38.9,  -40.3,  -41.6
2001/07/07 05:50,  999.0,  999.0,  999.0,  -24.8,  -11.8,   -4.9,  -12.1,  -22.3,  -23.8,  -24.0,  -24.8,  -28.2,  -28.1,  -27.8,  -32.5,  -37.2,  -35.7,  -38.7,  -39.6,  -38.8,  -38.8,  -35.9,  -35.2,  -37.9,  -37.0,  -33.7,  -35.1,  -37.2,  -38.5,  -37.2,  -34.7,  -39.3,  -38.0,  -38.9,  -42.4,  -41.1,  -38.2,  -40.6,  -38.0,  -38.5,  -46.5,  -41.4,  -39.4,  -42.7,  -41.3,  -39.5,  -38.9,  -41.5,  -40.3,  -39.7,  -39.5,  -43.1
2001/07/07 06:00,  999.0,  999.0,  999.0,  -30.5,  -13.9,  -10.0,  -14.2,  -23.2,  -26.0,  -28.6,  -26.9,  -27.3,  -33.6,  -30.8,  -35.9,  -38.8,  -39.2,  -40.4,  -38.5,  -38.7,  -38.6,  -36.9,  -36.2,  -38.0,  -35.6,  -36.1,  -33.7,  -37.8,  -39.6,  -36.3,  -34.2,  -39.4,  999.0,  -38.2,  -41.4,  -42.2,  -39.0,  -40.2,  -37.9,  -38.8,  -41.9,  -39.5,  -39.8,  -40.6,  -41.4,  -39.1,  -38.9,  -41.7,  -40.2,  -39.9,  -40.1,  -41.8
2001/07/07 06:10,  999.0,  999.0,  999.0,  -23.8,   -9.2,   -5.3,  -12.4,  -18.3,  -21.8,  -26.8,  -25.0,  999.0,  -31.4,  -29.5,  -32.6,  -37.4,  -36.8,  -39.0,  -39.9,  -39.4,  -38.8,  -34.9,  -36.5,  -38.9,  -33.4,  -32.1,  -34.2,  -36.6,  -39.3,  -37.5,  -34.9,  -37.1,  -38.1,  -38.7,  -44.4,  -44.1,  -39.4,  -41.2,  -36.9,  -38.8,  -39.9,  -39.3,  -39.3,  -40.7,  -40.6,  -40.9,  -38.6,  -36.4,  -42.2,  -38.6,  -41.0,  -39.3
2001/07/07 06:20,  999.0,  999.0,  999.0,  -24.7,   -9.8,   -4.9,   -9.6,  -23.0,  -25.7,  -30.0,  -28.9,  -29.6,  -32.1,  -30.0,  -32.0,  -37.6,  -35.8,  -40.5,  -39.1,  -39.7,  -39.3,  -36.9,  -36.7,  -37.0,  -34.1,  -31.9,  -32.8,  -36.7,  -39.9,  -37.7,  -35.1,  -37.7,  -37.2,  -39.8,  999.0,  -42.5,  -40.6,  -39.8,  -36.1,  -37.3,  -40.0,  -40.4,  -38.7,  -40.9,  -41.1,  -41.3,  -40.2,  -41.8,  -41.1,  -39.7,  -42.4,  -41.8
2001/07/07 06:30,  999.0,  999.0,  999.0,  -24.0,   -8.5,   -2.8,   -9.6,  -21.5,  -23.2,  -27.1,  -27.0,  -28.1,  -32.3,  -24.0,  -30.1,  -34.7,  -36.6,  -39.0,  -39.3,  -39.4,  -39.1,  -37.6,  -36.0,  -36.5,  -35.0,  -32.8,  -32.2,  -37.6,  -41.1,  -36.3,  -35.3,  -39.4,  -40.3,  -37.4,  999.0,  999.0,  -38.3,  -40.1,  -36.6,  -37.3,  -40.7,  -38.6,  -38.1,  -39.9,  -40.9,  -40.4,  -40.9,  -40.2,  -42.1,  -40.6,  -41.6,  -39.0
2001/07/07 06:40,  999.0,  999.0,  999.0,  -23.6,   -7.7,   -2.4,   -8.7,  -20.4,  -22.5,  -30.2,  -30.0,  -26.2,  -31.2,  -25.8,  -29.3,  -32.5,  -36.4,  -38.5,  -38.6,  -38.9,  -37.3,  -36.9,  -37.5,  -39.0,  -33.8,  -32.7,  -32.9,  -36.3,  -40.4,  -37.4,  -36.7,  -41.3,  -40.3,  -39.2,  -43.4,  -39.5,  -40.1,  -40.8,  -36.5,  -40.0,  -40.8,  -39.1,  -38.0,  -40.0,  -40.6,  -40.8,  -39.3,  -41.1,  -39.6,  -41.7,  -42.0,  -41.0
2001/07/07 06:50,  999.0,  999.0,  999.0,  -28.4,  -12.2,   -7.9,  -14.7,  -23.1,  -26.9,  -32.9,  -29.6,  -29.1,  -33.6,  -30.2,  -32.4,  -29.3,  -31.0,  -37.9,  -38.6,  -39.7,  -38.2,  -38.6,  -39.3,  -38.9,  -35.1,  -33.7,  -34.8,  -38.4,  -40.7,  -41.6,  -36.7,  -38.4,  -40.2,  -39.7,  -42.8,  -40.0,  -40.5,  -39.1,  -37.5,  -38.8,  -40.1,  -39.7,  -38.7,  -40.9,  -41.5,  -41.5,  -39.1,  999.0,  -41.0,  -40.6,  999.0,  999.0
2001/07/07 07:00,  999.0,  999.0,  999.0,  -28.7,  -10.9,   -9.1,  -16.3,  -23.6,  -27.6,  -32.9,  -31.7,  -33.9,  -34.3,  -29.8,  -32.1,  -30.9,  -36.4,  -39.6,  -39.7,  -38.2,  -37.2,  -38.1,  -37.6,  -38.3,  -35.9,  -31.3,  -32.7,  -37.8,  999.0,  -40.2,  -37.7,  -40.7,  -40.5,  -40.5,  -40.8,  -41.3,  -34.7,  -43.0,  -37.0,  -38.6,  -40.7,  -39.4,  -40.2,  -39.1,  -41.7,  -41.7,  -42.3,  -41.7,  -40.1,  -38.8,  999.0,  -44.8
2001/07/07 07:10,  999.0,  999.0,  999.0,  -23.4,   -7.5,   -4.4,  -11.2,  -22.1,  -24.6,  -25.6,  -25.2,  -31.8,  -30.7,  -28.1,  -30.1,  -34.1,  -35.2,  -38.5,  -40.5,  -36.6,  -37.3,  -37.0,  -37.4,  -39.5,  -34.2,  -31.6,  -33.2,  -35.5,  -39.4,  -40.0,  -38.6,  -40.8,  -39.5,  -39.3,  -40.2,  -40.5,  -39.2,  -37.9,  -36.9,  -39.0,  -40.9,  -39.5,  -40.0,  -39.8,  -41.5,  -42.8,  -39.0,  999.0,  -40.5,  -41.0,  -41.1,  -40.7
2001/07/07 07:20,  999.0,  999.0,  999.0,  -27.0,   -8.4,   -4.0,  -12.7,  -23.8,  -26.9,  -27.4,  -30.1,  -33.4,  -34.5,  -30.3,  -32.4,  -33.3,  -35.4,  -37.5,  -36.9,  -38.8,  -40.0,  -36.4,  -38.0,  -37.3,  -34.7,  -31.0,  -32.1,  -39.2,  -42.9,  -39.5,  -38.4,  -39.9,  -42.0,  -40.0,  -40.3,  -42.3,  -39.3,  -40.5,  -36.5,  -38.3,  -42.1,  -39.9,  -38.2,  -40.7,  -40.1,  -41.5,  -37.6,  -40.5,  -40.3,  -40.4,  -41.7,  -39.6
2001/07/07 07:30,  999.0,  999.0,  999.0,  -31.0,   -9.6,   -4.4,  -12.9,  -22.8,  -27.2,  -27.1,  -27.6,  -30.2,  -34.2,  -31.6,  -31.2,  -33.7,  -36.5,  -37.4,  -38.8,  -40.5,  -39.3,  -37.0,  -37.2,  -38.2,  -36.7,  -35.1,  -33.6,  -36.6,  -40.5,  -38.2,  -38.3,  -40.3,  -40.0,  -39.8,  -43.2,  999.0,  -38.0,  -39.8,  -39.4,  -38.7,  999.0,  -41.0,  -39.3,  -39.8,  -42.3,  -42.3,  -40.3,  999.0,  -41.9,  -40.7,  -40.3,  -42.6
2001/07/07 07:40,  999.0,  999.0,  999.0,  -30.9,   -9.2,   -2.1,  -10.0,  -21.7,  -25.8,  -25.3,  -26.9,  -28.4,  -35.1,  -29.6,  -30.8,  -33.0,  -36.8,  -35.5,  -40.7,  -38.7,  -39.1,  -38.4,  -39.3,  -38.2,  -39.3,  -37.0,  -35.4,  -36.9,  -42.5,  -41.0,  -38.7,  -40.9,  -40.7,  -39.3,  999.0,  999.0,  -39.5,  -41.0,  -38.5,  -40.2,  -43.3,  -40.1,  -40.2,  -39.4,  -41.6,  -43.7,  -37.9,  -40.7,  -41.9,  -41.0,  -39.7,  -39.8
2001/07/07 07:50,  999.0,  999.0,  999.0,  -29.3,   -8.7,   -2.6,  -14.2,  -23.4,  -24.9,  -27.1,  -29.0,  -30.2,  -35.3,  -29.9,  -32.7,  -34.9,  -36.2,  -39.0,  -40.3,  -39.2,  -41.6,  -40.6,  -36.9,  -34.9,  -35.4,  -36.8,  -35.2,  -40.6,  999.0,  -40.8,  -39.3,  -41.3,  -41.6,  -38.7,  -42.6,  -40.7,  -40.8,  -40.9,  -38.3,  -41.0,  -41.0,  -40.0,  -38.1,  -40.5,  -41.1,  -41.2,  -36.2,  -40.3,  999.0,  -42.3,  -39.9,  -41.6
2001/07/07 08:00,  999.0,  999.0,  999.0,  -28.2,   -8.9,   -5.9,  -15.3,  -24.5,  -25.1,  -28.8,  -27.4,  -27.0,  -34.3,  -30.9,  -33.2,  -37.5,  -35.5,  -36.9,  -37.6,  -39.7,  -40.7,  -37.0,  -36.4,  -38.1,  -37.0,  -36.2,  -37.0,  -40.0,  -44.3,  -41.5,  -39.8,  -41.6,  -40.7,  -39.5,  -42.0,  -43.1,  -40.6,  -41.3,  -37.4,  -40.7,  -42.7,  -41.4,  -38.2,  -39.8,  -41.0,  999.0,  -39.9,  -42.5,  -39.8,  -39.2,  -40.2,  -40.6
2001/07/07 08:10,  999.0,  999.0,  999.0,  -30.6,  -10.0,   -6.3,  -17.1,  -25.6,  -26.2,  -30.3,  -29.3,  -27.9,  -34.5,  -33.7,  -33.7,  -35.9,  -36.3,  -36.3,  -36.7,  -36.8,  -39.9,  -38.4,  -38.7,  -39.8,  -36.5,  -37.6,  -36.3,  -38.0,  999.0,  -41.7,  -39.7,  -39.7,  -40.3,  -40.5,  999.0,  -40.2,  -41.7,  -40.8,  -34.2,  -40.9,  -42.3,  -41.4,  -40.0,  -38.9,  -38.6,  -43.0,  -39.3,  -40.6,  -41.0,  -40.4,  -40.4,  -40.2
2001/07/07 08:20,  999.0,  999.0,  999.0,  -31.8,   -8.1,   -4.1,  -18.5,  -27.3,  -26.6,  -32.7,  -29.4,  -29.5,  -36.0,  -34.1,  -34.6,  -33.8,  -35.8,  -37.6,  -35.8,  -35.9,  -39.9,  -39.9,  -37.0,  -36.8,  -36.3,  -37.1,  -34.8,  -37.2,  -41.2,  -41.0,  -37.2,  -41.9,  -37.9,  -41.0,  -40.3,  -45.0,  -37.7,  -40.9,  -38.2,  -39.8,  -39.2,  -38.8,  -39.8,  -39.4,  -41.1,  -39.8,  -41.0,  -41.3,  -39.9,  -40.3,  -38.6,  -40.1
2001/07/07 08:30,  999.0,  999.0,  999.0,  -32.4,   -7.0,   -5.5,  -19.6,  -27.2,  -28.4,  -33.2,  -29.3,  -29.8,  -37.1,  -33.3,  -35.6,  -36.9,  -35.5,  -40.3,  -35.8,  -36.0,  -39.2,  -39.1,  -35.2,  -35.5,  -35.6,  -35.5,  -36.3,  -38.2,  -40.3,  -41.2,  -38.6,  -39.6,  -39.6,  -39.5,  -44.5,  -40.4,  -38.6,  -40.9,  -37.4,  -39.9,  -39.8,  -40.3,  -39.2,  -40.1,  -40.3,  -40.1,  -37.6,  -40.4,  -41.0,  -40.1,  -40.9,  -41.2
2001/07/07 08:40,  999.0,  999.0,  999.0,  -28.4,   -5.0,   -3.3,  -18.0,  -25.6,  -26.4,  -32.6,  -32.4,  -29.5,  999.0,  -33.8,  -32.9,  -36.4,  -37.2,  -38.3,  -36.7,  -35.7,  -39.1,  -37.1,  -37.1,  -36.8,  -37.7,  -37.0,  -36.7,  -39.7,  999.0,  -42.0,  -34.7,  -39.4,  -40.4,  -40.2,  -41.6,  999.0,  -40.4,  -39.0,  -37.8,  -40.6,  -40.5,  -40.0,  -38.6,  -38.6,  -41.2,  -44.8,  -39.8,  -40.2,  -40.8,  -40.2,  -40.7,  -41.9
2001/07/07 08:50,  999.0,  999.0,  999.0,  -30.2,   -8.4,   -7.5,  -21.6,  -25.2,  -26.6,  -33.1,  -35.6,  -29.5,  -30.6,  -33.9,  -32.5,  -36.1,  -38.1,  -39.8,  -38.0,  -38.2,  -39.8,  -38.3,  -36.5,  -37.8,  -37.2,  -37.3,  -37.8,  -38.4,  -40.3,  -40.5,  -39.2,  -41.2,  -39.2,  -39.9,  -41.6,  999.0,  -39.2,  -39.6,  -39.3,  -39.3,  -41.7,  -39.5,  -37.5,  -38.9,  -39.6,  -40.2,  -40.4,  -39.3,  -39.0,  -39.7,  -40.2,  -39.9